Tracking 28052 objects as of 24-Sep-2023
HD Live streaming from Space Station
objects crossing your sky now

COSMOS 886 DEB

Track COSMOS 886 DEB now!
10-day predictions


NORAD ID: 14503
Int'l Code: 1976-126BQ
Perigee: 750.2 km
Apogee: 2,354.4 km
Inclination: 65.9 °
Period: 117.0 minutes
Semi major axis: 7923 km
RCS: 0.0162 m2 (small)
Launch date: December 27, 1976
Source: Commonwealth of Independent States (former USSR) (CIS)
Launch site: TYURATAM MISSILE AND SPACE COMPLEX (TTMTR)

Note: This is SATELLITE DEBRIS
Your satellite tracking list
Your tracking list is empty




NASA's NSSDC Master Catalog

Two Line Element Set (TLE):
1 14503U 76126BQ  23266.68698833 -.00000023  00000-0  48921-4 0  9999
2 14503  65.8601 166.7614 1012312 273.7278  74.8711 12.30951265450593
Source of the keplerian elements: AFSPC